Total_Precipitation_Accumulation
0.69 0.77 0.71 0.58 0.52 0.45 0.55 0.67 0.83 0.84 0.79 0.75 0.84 0.88 0.80 0.82 0.88 0.83 0.88 0.90 0.79 0.69 0.61 0.58 0.58 0.59 0.63 0.69 0.74 0.75 0.76 0.80 0.91 1.07 1.24 1.45 1.65 1.85
0.83 0.83 0.78 0.70 0.70 0.56 0.54 0.66 0.80 0.90 0.91 0.69 0.78 0.82 0.87 0.79 0.87 0.84 0.88 0.89 0.76 0.69 0.59 0.55 0.54 0.54 0.53 0.54 0.58 0.64 0.65 0.64 0.67 0.75 0.82 0.91 0.99 1.13
1.07 0.96 0.90 0.86 0.87 0.76 0.75 0.79 0.83 0.96 1.05 0.92 0.89 0.99 1.03 0.97 0.96 0.91 0.84 0.83 0.76 0.72 0.61 0.55 0.52 0.51 0.53 0.53 0.53 0.53 0.58 0.59 0.58 0.59 0.61 0.65 0.65 0.66
1.41 1.43 1.25 1.12 1.08 0.96 0.95 0.93 0.92 0.98 1.06 1.10 1.07 1.10 1.10 1.09 1.06 0.90 0.74 0.69 0.72 0.75 0.67 0.62 0.60 0.56 0.54 0.52 0.52 0.50 0.51 0.51 0.53 0.51 0.50 0.50 0.53 0.55
1.27 1.45 1.44 1.44 1.27 1.19 1.12 1.04 0.99 0.94 1.00 1.04 1.06 1.20 1.26 1.24 1.07 0.81 0.70 0.72 0.65 0.76 0.74 0.61 0.55 0.52 0.49 0.45 0.41 0.39 0.38 0.40 0.42 0.43 0.42 0.40 0.40 0.41
1.15 1.19 1.27 1.43 1.36 1.29 1.23 1.16 1.13 1.12 1.11 1.09 1.12 1.26 1.43 1.46 1.22 0.91 0.78 0.74 0.70 0.60 0.63 0.59 0.55 0.51 0.47 0.42 0.39 0.37 0.36 0.36 0.38 0.38 0.38 0.38 0.36 0.35
1.22 1.14 1.11 1.24 1.32 1.32 1.20 1.15 1.20 1.22 1.19 1.15 1.19 1.33 1.46 1.54 1.29 1.03 0.87 0.80 0.75 0.66 0.59 0.53 0.51 0.49 0.51 0.53 0.51 0.44 0.40 0.39 0.41 0.42 0.41 0.39 0.38 0.37
1.47 1.37 1.23 1.14 1.14 1.19 1.23 1.26 1.24 1.22 1.24 1.26 1.28 1.35 1.44 1.48 1.51 1.33 1.10 0.89 0.77 0.70 0.68 0.61 0.54 0.51 0.45 0.42 0.49 0.48 0.43 0.40 0.38 0.38 0.40 0.42 0.41 0.37
1.45 1.41 1.21 1.10 1.13 1.09 1.21 1.26 1.19 1.12 1.07 1.13 1.18 1.26 1.53 1.70 1.81 1.54 1.29 1.10 0.90 0.79 0.74 0.65 0.60 0.55 0.47 0.45 0.54 0.48 0.44 0.42 0.40 0.38 0.37 0.36 0.37 0.37
1.18 1.26 1.22 1.12 1.07 1.03 0.97 0.91 0.88 0.89 0.86 0.82 0.88 1.06 1.33 1.69 1.87 1.85 1.73 1.48 1.27 1.04 0.84 0.71 0.61 0.56 0.55 0.51 0.58 0.54 0.48 0.44 0.42 0.40 0.35 0.32 0.34 0.36
0.97 0.99 0.99 0.90 0.88 0.81 0.77 0.69 0.66 0.66 0.65 0.66 0.70 0.86 1.07 1.33 1.66 1.82 1.76 1.54 1.28 1.01 0.79 0.68 0.61 0.58 0.54 0.50 0.50 0.56 0.49 0.44 0.42 0.41 0.41 0.37 0.34 0.36
0.94 0.98 1.04 0.90 0.76 0.61 0.61 0.64 0.57 0.54 0.56 0.56 0.57 0.62 0.73 0.93 1.27 1.40 1.37 1.32 1.14 0.92 0.67 0.60 0.55 0.60 0.56 0.47 0.40 0.39 0.41 0.45 0.45 0.43 0.42 0.41 0.39 0.31
0.79 0.80 0.89 0.86 0.69 0.54 0.54 0.56 0.51 0.49 0.52 0.52 0.53 0.57 0.68 0.81 0.96 1.18 1.23 1.13 1.01 0.80 0.61 0.60 0.55 0.55 0.54 0.45 0.40 0.35 0.32 0.32 0.35 0.38 0.41 0.42 0.42 0.37
0.78 0.79 0.88 0.89 0.71 0.59 0.51 0.48 0.41 0.36 0.40 0.47 0.48 0.48 0.54 0.65 0.83 1.04 1.21 1.18 1.06 0.95 0.84 0.80 0.73 0.66 0.57 0.46 0.37 0.32 0.31 0.30 0.29 0.30 0.33 0.42 0.42 0.43
0.82 1.03 1.04 0.98 0.82 0.67 0.60 0.56 0.44 0.37 0.40 0.45 0.47 0.46 0.48 0.59 0.83 1.08 1.27 1.38 1.29 1.12 1.01 0.91 0.84 0.78 0.74 0.56 0.41 0.36 0.35 0.35 0.33 0.32 0.32 0.33 0.35 0.39
0.85 1.04 1.14 1.16 1.06 0.93 0.83 0.74 0.57 0.52 0.55 0.56 0.57 0.61 0.65 0.76 0.91 1.01 1.15 1.28 1.33 1.19 1.04 0.96 0.89 0.90 0.84 0.69 0.55 0.43 0.37 0.36 0.35 0.34 0.35 0.35 0.36 0.38
0.80 1.03 1.22 1.34 1.36 1.31 1.17 1.04 0.91 0.80 0.72 0.72 0.76 0.76 0.77 0.83 0.89 1.01 1.14 1.18 1.15 1.01 0.94 0.94 0.95 0.96 0.94 0.87 0.69 0.49 0.41 0.34 0.31 0.37 0.44 0.41 0.38 0.37
0.73 0.95 1.19 1.38 1.44 1.53 1.51 1.40 1.21 1.04 0.95 0.92 0.90 0.88 0.88 0.87 0.90 1.02 1.17 1.22 1.12 0.98 0.88 0.83 0.93 1.02 1.00 0.86 0.69 0.52 0.40 0.35 0.32 0.37 0.44 0.45 0.37 0.34
0.66 0.82 0.93 1.08 1.26 1.44 1.52 1.50 1.33 1.18 1.18 1.15 1.06 1.00 1.01 0.98 0.96 1.03 1.16 1.23 1.21 1.08 0.98 0.90 0.92 0.97 0.91 0.70 0.51 0.46 0.46 0.40 0.42 0.41 0.42 0.44 0.38 0.33
0.53 0.64 0.72 0.84 1.02 1.27 1.42 1.48 1.40 1.28 1.26 1.27 1.23 1.17 1.15 1.10 1.02 0.99 1.09 1.18 1.20 1.16 1.10 1.00 0.86 0.82 0.80 0.71 0.62 0.50 0.46 0.55 0.57 0.52 0.46 0.46 0.44 0.46
0.54 0.59 0.63 0.74 0.89 1.10 1.31 1.45 1.47 1.40 1.33 1.38 1.37 1.27 1.23 1.18 1.07 0.99 1.03 1.15 1.21 1.21 1.09 0.95 0.83 0.88 1.04 1.14 0.95 0.66 0.55 0.55 0.66 0.68 0.66 0.68 0.61 0.59
0.66 0.66 0.71 0.80 0.93 1.16 1.35 1.44 1.47 1.44 1.39 1.41 1.39 1.30 1.24 1.21 1.11 1.06 1.06 1.11 1.12 1.13 1.10 1.09 1.18 1.22 1.21 1.15 0.91 0.70 0.65 0.65 0.70 0.77 0.76 0.73 0.69 0.60
0.70 0.68 0.70 0.77 0.93 1.13 1.28 1.40 1.43 1.44 1.42 1.38 1.35 1.28 1.23 1.22 1.19 1.15 1.10 1.11 1.15 1.19 1.31 1.34 1.32 1.29 1.18 1.11 1.03 0.92 0.83 0.83 0.86 0.82 0.68 0.60 0.57 0.55